Change the Weather History Date:

Sunday, November 11, 2012

  Actual Average Record
Temperature  
Mean Temperature 55 °F 52 °F  
Max Temperature 71 °F 63 °F 78 °F (2006)
Min Temperature 39 °F 41 °F 19 °F (1973)
Degree Days  
Heating Degree Days 10 13  
Month to date heating degree days 185 130  
Since 1 July heating degree days 412 363  
Cooling Degree Days 0 0  
Month to date cooling degree days 0 0  
Year to date cooling degree days 1623 1480  
Growing Degree Days 5 (Base 50)    
Moisture  
Dew Point 41 °F    
Average Humidity 56    
Maximum Humidity 80    
Minimum Humidity 32    
Precipitation  
Precipitation 0.00 in 0.10 in 2.49 in (2009)
Month to date precipitation T 1.17  
Year to date precipitation 33.82 37.28  
Sea Level Pressure  
Sea Level Pressure 30.41 in    
Wind  
Wind Speed 7 mph (SSW)    
Max Wind Speed 18 mph    
Max Gust Speed 22 mph    
Visibility 10 miles    
Events      
T = Trace of Precipitation, MM = Missing Value Source: NWS Daily Summary

Daily Weather History Graph

Daily Weather History Graph

Search for Another Location

Airport or City:

Trip Planner

Search our weather history database for the weather conditions in past years. The results will help you decide how hot, cold, wet, or windy it might be!

Date:

Astronomy

Nov. 11, 2012 Rise Set
Actual Time 6:52 AM EST 5:14 PM EST
Civil Twilight 6:25 AM EST 5:41 PM EST
Nautical Twilight 5:54 AM EST 6:12 PM EST
Astronomical Twilight 5:24 AM EST 6:42 PM EST
Moon 4:08 AM EST (11/11) 3:34 PM EST (11/11)
Length of Visible Light 11h 15m
Length of Day
10h 21m
Waning Crescent, 7% of the Moon is Illuminated
Nov 11
Waning Crescent
Nov 13
New
Nov 20
First Quarter
Nov 28
Full
Dec 6
Last Quarter

Hourly Weather History & Observations

Time (EST) Temp. Windchill Dew Point Humidity Pressure Visibility Wind Dir Wind Speed Gust Speed Precip Events Conditions
12:54 AM 46.9 °F - 35.1 °F 63% 30.36 in 10.0 mi SSW 4.6 mph - N/A   Clear
1:54 AM 48.0 °F - 35.1 °F 61% 30.35 in 10.0 mi South 3.5 mph - N/A   Clear
2:54 AM 43.0 °F 40.3 °F 34.0 °F 71% 30.36 in 10.0 mi South 4.6 mph - N/A   Clear
3:54 AM 43.0 °F 39.5 °F 34.0 °F 71% 30.37 in 10.0 mi SW 5.8 mph - N/A   Clear
4:54 AM 42.1 °F 39.2 °F 34.0 °F 73% 30.38 in 10.0 mi SSW 4.6 mph - N/A   Clear
5:54 AM 39.9 °F 36.7 °F 34.0 °F 79% 30.40 in 10.0 mi SSW 4.6 mph - N/A   Clear
6:54 AM 41.0 °F 39.0 °F 34.0 °F 76% 30.43 in 8.0 mi SSW 3.5 mph - N/A   Clear
7:54 AM 46.0 °F - 37.9 °F 73% 30.45 in 9.0 mi Calm Calm - N/A   Clear
8:54 AM 53.1 °F - 39.0 °F 59% 30.46 in 10.0 mi SSW 3.5 mph - N/A   Clear
9:54 AM 61.0 °F - 41.0 °F 48% 30.46 in 10.0 mi West 6.9 mph - N/A   Clear
10:54 AM 66.0 °F - 39.0 °F 37% 30.46 in 10.0 mi WSW 6.9 mph - N/A   Clear
11:54 AM 68.0 °F - 37.0 °F 32% 30.44 in 10.0 mi SSW 8.1 mph - N/A   Clear
12:54 PM 69.1 °F - 41.0 °F 36% 30.41 in 10.0 mi SSW 11.5 mph - N/A   Clear
1:54 PM 71.1 °F - 44.1 °F 38% 30.39 in 10.0 mi SSW 11.5 mph - N/A   Clear
2:54 PM 71.1 °F - 45.0 °F 39% 30.39 in 10.0 mi SW 12.7 mph - N/A   Partly Cloudy
3:54 PM 70.0 °F - 46.0 °F 42% 30.38 in 10.0 mi SW 15.0 mph - N/A   Partly Cloudy
4:54 PM 66.9 °F - 46.0 °F 47% 30.39 in 10.0 mi South 9.2 mph - N/A   Partly Cloudy
5:54 PM 62.1 °F - 46.0 °F 56% 30.40 in 10.0 mi South 6.9 mph - N/A   Partly Cloudy
6:54 PM 59.0 °F - 46.0 °F 62% 30.41 in 10.0 mi SSE 5.8 mph - N/A   Clear
7:54 PM 57.9 °F - 46.9 °F 67% 30.41 in 10.0 mi SSE 5.8 mph - N/A   Clear
8:54 PM 59.0 °F - 50.0 °F 72% 30.41 in 10.0 mi SSE 8.1 mph - N/A   Clear
9:54 PM 60.1 °F - 51.1 °F 72% 30.42 in 10.0 mi South 8.1 mph - N/A   Scattered Clouds
10:54 PM 57.9 °F - 51.1 °F 78% 30.41 in 10.0 mi SSE 8.1 mph - N/A   Scattered Clouds
11:54 PM 55.9 °F - 51.1 °F 84% 30.40 in 10.0 mi SSE 6.9 mph - N/A   Clear